QPF
0.09 0.08 0.10 0.11 0.13 0.09 0.06 0.04 0.05 0.04 0.03 0.03 0.04 0.08 0.11 0.12 0.13 0.13 0.12 0.10 0.07 0.04 0.04 0.04 0.04 0.04 0.03 0.03 0.03 0.03 0.02 0.02 0.02 0.02 0.02 0.03 0.04 0.04 0.04 0.03 0.03 0.03 0.03
0.06 0.07 0.12 0.11 0.10 0.07 0.05 0.04 0.03 0.03 0.03 0.03 0.04 0.07 0.12 0.15 0.16 0.14 0.11 0.08 0.06 0.04 0.05 0.05 0.05 0.05 0.05 0.04 0.04 0.03 0.02 0.01 0.01 0.01 0.02 0.02 0.02 0.03 0.04 0.04 0.04 0.03 0.04
0.05 0.05 0.07 0.08 0.08 0.08 0.06 0.05 0.04 0.04 0.04 0.04 0.04 0.06 0.09 0.10 0.11 0.15 0.11 0.07 0.06 0.05 0.05 0.04 0.05 0.05 0.05 0.05 0.05 0.04 0.03 0.03 0.02 0.02 0.02 0.02 0.03 0.04 0.04 0.04 0.04 0.03 0.03
0.11 0.06 0.06 0.06 0.06 0.05 0.06 0.06 0.05 0.05 0.05 0.05 0.04 0.04 0.05 0.07 0.08 0.09 0.07 0.08 0.08 0.06 0.04 0.04 0.04 0.05 0.06 0.05 0.05 0.06 0.05 0.05 0.04 0.04 0.03 0.03 0.03 0.04 0.04 0.04 0.05 0.04 0.03
0.14 0.08 0.05 0.04 0.04 0.03 0.04 0.04 0.04 0.05 0.06 0.05 0.05 0.04 0.05 0.04 0.04 0.05 0.08 0.08 0.08 0.05 0.05 0.05 0.06 0.05 0.06 0.05 0.05 0.06 0.06 0.07 0.06 0.05 0.04 0.03 0.02 0.03 0.02 0.04 0.05 0.04 0.04
0.16 0.10 0.07 0.05 0.03 0.02 0.03 0.04 0.03 0.04 0.04 0.05 0.06 0.06 0.06 0.03 0.02 0.03 0.04 0.05 0.06 0.07 0.10 0.13 0.12 0.07 0.07 0.06 0.07 0.09 0.09 0.08 0.08 0.08 0.06 0.04 0.03 0.02 0.02 0.03 0.03 0.03 0.03
0.11 0.08 0.05 0.04 0.03 0.02 0.03 0.03 0.03 0.03 0.04 0.07 0.09 0.10 0.06 0.04 0.04 0.04 0.04 0.05 0.06 0.06 0.10 0.16 0.14 0.10 0.09 0.09 0.08 0.09 0.09 0.09 0.08 0.09 0.09 0.06 0.04 0.04 0.04 0.03 0.03 0.03 0.03
0.06 0.04 0.02 0.02 0.01 0.01 0.02 0.03 0.03 0.03 0.05 0.08 0.08 0.12 0.08 0.06 0.06 0.05 0.05 0.04 0.05 0.07 0.10 0.14 0.15 0.11 0.09 0.07 0.07 0.06 0.08 0.10 0.09 0.08 0.08 0.09 0.07 0.05 0.04 0.05 0.05 0.04 0.04
0.03 0.03 0.02 0.02 0.02 0.03 0.04 0.04 0.04 0.05 0.07 0.10 0.11 0.09 0.06 0.07 0.05 0.05 0.06 0.07 0.08 0.10 0.11 0.11 0.09 0.10 0.09 0.09 0.08 0.07 0.06 0.07 0.09 0.10 0.11 0.12 0.11 0.08 0.05 0.05 0.05 0.05 0.05
0.02 0.03 0.02 0.03 0.04 0.06 0.07 0.08 0.10 0.11 0.11 0.11 0.12 0.10 0.10 0.08 0.07 0.07 0.07 0.09 0.16 0.14 0.12 0.10 0.08 0.06 0.08 0.10 0.11 0.12 0.10 0.08 0.06 0.08 0.09 0.09 0.10 0.09 0.07 0.06 0.05 0.04 0.05
0.02 0.02 0.03 0.04 0.06 0.08 0.09 0.10 0.10 0.10 0.08 0.07 0.08 0.09 0.10 0.09 0.08 0.08 0.08 0.10 0.13 0.13 0.10 0.09 0.07 0.06 0.05 0.06 0.08 0.10 0.12 0.10 0.07 0.07 0.08 0.09 0.09 0.09 0.09 0.09 0.08 0.07 0.06
0.02 0.02 0.03 0.04 0.05 0.07 0.07 0.06 0.05 0.05 0.05 0.06 0.05 0.06 0.08 0.08 0.08 0.09 0.09 0.09 0.11 0.12 0.09 0.06 0.05 0.05 0.06 0.05 0.05 0.05 0.04 0.05 0.06 0.06 0.07 0.08 0.08 0.09 0.10 0.11 0.12 0.11 0.10
0.02 0.02 0.03 0.04 0.04 0.04 0.03 0.03 0.03 0.03 0.04 0.05 0.05 0.05 0.06 0.07 0.07 0.11 0.13 0.12 0.12 0.11 0.09 0.07 0.06 0.06 0.06 0.06 0.06 0.05 0.03 0.04 0.05 0.05 0.06 0.07 0.09 0.09 0.08 0.10 0.12 0.13 0.13
0.03 0.03 0.02 0.02 0.03 0.03 0.02 0.02 0.02 0.03 0.03 0.03 0.04 0.04 0.05 0.05 0.06 0.08 0.11 0.14 0.16 0.11 0.09 0.10 0.08 0.08 0.07 0.06 0.07 0.06 0.04 0.03 0.04 0.05 0.05 0.06 0.05 0.06 0.07 0.09 0.13 0.17 0.18
0.02 0.02 0.02 0.02 0.02 0.02 0.02 0.02 0.02 0.02 0.02 0.02 0.02 0.04 0.04 0.04 0.04 0.05 0.06 0.09 0.15 0.13 0.09 0.10 0.10 0.09 0.06 0.07 0.10 0.09 0.05 0.04 0.04 0.03 0.04 0.04 0.04 0.03 0.04 0.05 0.07 0.11 0.15
0.01 0.02 0.02 0.01 0.01 0.02 0.02 0.01 0.01 0.01 0.02 0.02 0.02 0.03 0.05 0.05 0.04 0.04 0.05 0.06 0.09 0.11 0.10 0.11 0.09 0.09 0.08 0.08 0.11 0.11 0.07 0.07 0.06 0.04 0.03 0.03 0.04 0.04 0.05 0.04 0.04 0.06 0.08
0.01 0.02 0.02 0.01 0.02 0.02 0.02 0.02 0.02 0.02 0.02 0.03 0.03 0.04 0.04 0.04 0.03 0.04 0.04 0.07 0.10 0.11 0.08 0.09 0.07 0.08 0.14 0.17 0.13 0.11 0.10 0.11 0.11 0.06 0.03 0.03 0.03 0.04 0.04 0.03 0.03 0.03 0.05
0.02 0.03 0.02 0.02 0.02 0.02 0.03 0.03 0.04 0.04 0.05 0.05 0.05 0.04 0.04 0.04 0.03 0.03 0.04 0.06 0.08 0.07 0.07 0.08 0.09 0.09 0.10 0.15 0.14 0.10 0.08 0.08 0.07 0.05 0.04 0.04 0.04 0.04 0.03 0.04 0.03 0.03 0.03
0.02 0.03 0.02 0.02 0.03 0.04 0.05 0.06 0.07 0.06 0.06 0.05 0.05 0.04 0.04 0.04 0.03 0.03 0.03 0.04 0.05 0.06 0.07 0.08 0.07 0.08 0.07 0.05 0.05 0.05 0.04 0.03 0.03 0.03 0.03 0.04 0.03 0.04 0.03 0.03 0.02 0.03 0.03
0.02 0.02 0.02 0.04 0.05 0.06 0.07 0.08 0.09 0.10 0.07 0.05 0.05 0.04 0.03 0.03 0.03 0.03 0.04 0.04 0.04 0.04 0.06 0.07 0.06 0.06 0.05 0.03 0.03 0.03 0.02 0.01 0.01 0.01 0.01 0.01 0.02 0.02 0.02 0.02 0.02 0.01 0.01
0.01 0.02 0.02 0.04 0.05 0.05 0.06 0.08 0.09 0.10 0.08 0.06 0.06 0.05 0.05 0.06 0.05 0.04 0.03 0.04 0.04 0.03 0.04 0.05 0.05 0.04 0.04 0.03 0.03 0.03 0.03 0.02 0.02 0.01 0.01 0.01 0.00 0.00 0.01 0.01 0.02 0.02 0.01
0.02 0.02 0.04 0.05 0.05 0.06 0.09 0.12 0.11 0.07 0.06 0.07 0.07 0.06 0.05 0.05 0.06 0.05 0.05 0.04 0.04 0.03 0.03 0.03 0.04 0.04 0.05 0.05 0.07 0.07 0.06 0.04 0.03 0.02 0.02 0.01 0.00 0.00 0.00 0.00 0.01 0.01 0.01
0.03 0.03 0.05 0.07 0.06 0.07 0.09 0.09 0.08 0.07 0.07 0.06 0.06 0.07 0.05 0.05 0.06 0.06 0.05 0.04 0.03 0.04 0.04 0.04 0.04 0.04 0.05 0.07 0.06 0.04 0.04 0.03 0.02 0.02 0.02 0.01 0.01 0.01 0.01 0.02 0.02 0.02 0.02
0.04 0.04 0.05 0.06 0.06 0.08 0.10 0.10 0.08 0.06 0.04 0.04 0.05 0.06 0.05 0.04 0.05 0.05 0.05 0.04 0.04 0.05 0.05 0.05 0.04 0.03 0.03 0.03 0.03 0.03 0.04 0.03 0.03 0.04 0.04 0.04 0.03 0.03 0.02 0.03 0.02 0.02 0.01
0.06 0.08 0.10 0.10 0.09 0.08 0.08 0.07 0.05 0.04 0.04 0.04 0.04 0.05 0.05 0.04 0.04 0.04 0.05 0.05 0.05 0.05 0.04 0.03 0.02 0.02 0.02 0.02 0.02 0.03 0.04 0.04 0.04 0.05 0.05 0.05 0.04 0.03 0.02 0.01 0.01 0.01 0.02
0.12 0.10 0.08 0.07 0.05 0.04 0.05 0.06 0.06 0.06 0.07 0.06 0.05 0.04 0.04 0.03 0.03 0.04 0.04 0.03 0.02 0.02 0.02 0.02 0.02 0.02 0.02 0.02 0.02 0.02 0.02 0.03 0.03 0.03 0.03 0.03 0.03 0.02 0.02 0.01 0.01 0.01 0.01
MSLP
1015.79 1015.98 1016.10 1016.17 1016.21 1016.27 1016.38 1016.54 1016.77 1017.05 1017.36 1017.67 1017.95 1018.21 1018.43 1018.63 1018.83 1019.03 1019.26 1019.50 1019.74 1019.98 1020.19 1020.36 1020.48 1020.55 1020.60 1020.64 1020.69 1020.77 1020.88 1021.03 1021.20 1021.39 1021.57 1021.74 1021.87 1021.98 1022.06 1022.11 1022.16 1022.20 1022.26
1016.11 1016.33 1016.48 1016.57 1016.64 1016.72 1016.82 1016.97 1017.18 1017.43 1017.71 1017.99 1018.25 1018.49 1018.70 1018.87 1019.04 1019.19 1019.36 1019.55 1019.75 1019.96 1020.16 1020.34 1020.50 1020.62 1020.72 1020.80 1020.87 1020.95 1021.05 1021.17 1021.31 1021.46 1021.62 1021.77 1021.91 1022.03 1022.12 1022.20 1022.26 1022.30 1022.35
1016.33 1016.57 1016.76 1016.90 1017.02 1017.13 1017.25 1017.40 1017.59 1017.81 1018.07 1018.33 1018.58 1018.80 1018.99 1019.15 1019.28 1019.39 1019.50 1019.62 1019.77 1019.93 1020.10 1020.28 1020.46 1020.63 1020.77 1020.90 1021.00 1021.09 1021.17 1021.26 1021.35 1021.46 1021.58 1021.70 1021.83 1021.95 1022.06 1022.16 1022.23 1022.29 1022.33
1016.41 1016.67 1016.91 1017.11 1017.29 1017.45 1017.61 1017.78 1017.96 1018.17 1018.40 1018.65 1018.89 1019.11 1019.30 1019.44 1019.55 1019.62 1019.67 1019.72 1019.79 1019.88 1020.01 1020.17 1020.35 1020.54 1020.72 1020.88 1021.01 1021.11 1021.18 1021.24 1021.29 1021.35 1021.42 1021.52 1021.63 1021.75 1021.87 1021.99 1022.08 1022.16 1022.21
1016.36 1016.63 1016.92 1017.19 1017.44 1017.67 1017.87 1018.06 1018.25 1018.45 1018.67 1018.91 1019.15 1019.37 1019.57 1019.72 1019.81 1019.85 1019.85 1019.83 1019.81 1019.82 1019.88 1019.99 1020.14 1020.33 1020.53 1020.71 1020.86 1020.97 1021.04 1021.08 1021.09 1021.11 1021.15 1021.21 1021.31 1021.43 1021.57 1021.70 1021.83 1021.92 1021.99
1016.21 1016.49 1016.81 1017.15 1017.47 1017.77 1018.02 1018.24 1018.44 1018.64 1018.85 1019.08 1019.33 1019.57 1019.79 1019.95 1020.05 1020.06 1020.01 1019.92 1019.81 1019.73 1019.69 1019.73 1019.83 1019.99 1020.18 1020.37 1020.53 1020.66 1020.73 1020.76 1020.76 1020.76 1020.77 1020.82 1020.91 1021.04 1021.19 1021.34 1021.49 1021.61 1021.71
1016.01 1016.28 1016.64 1017.03 1017.42 1017.77 1018.08 1018.32 1018.53 1018.73 1018.93 1019.16 1019.42 1019.68 1019.92 1020.11 1020.21 1020.22 1020.13 1019.97 1019.78 1019.60 1019.46 1019.40 1019.43 1019.53 1019.69 1019.87 1020.03 1020.17 1020.25 1020.29 1020.30 1020.30 1020.31 1020.36 1020.46 1020.59 1020.76 1020.93 1021.10 1021.25 1021.36
1015.82 1016.08 1016.46 1016.89 1017.32 1017.73 1018.06 1018.33 1018.54 1018.73 1018.92 1019.15 1019.41 1019.69 1019.96 1020.17 1020.30 1020.30 1020.19 1019.98 1019.71 1019.43 1019.19 1019.02 1018.95 1018.98 1019.09 1019.24 1019.39 1019.53 1019.63 1019.69 1019.72 1019.74 1019.78 1019.85 1019.96 1020.12 1020.30 1020.49 1020.67 1020.82 1020.95
1015.68 1015.93 1016.31 1016.76 1017.23 1017.65 1018.00 1018.27 1018.47 1018.65 1018.83 1019.05 1019.31 1019.60 1019.89 1020.13 1020.28 1020.29 1020.17 1019.92 1019.59 1019.23 1018.89 1018.62 1018.45 1018.39 1018.43 1018.53 1018.66 1018.79 1018.90 1018.99 1019.05 1019.11 1019.18 1019.28 1019.42 1019.59 1019.79 1019.99 1020.17 1020.32 1020.45
1015.60 1015.84 1016.21 1016.66 1017.13 1017.56 1017.91 1018.16 1018.35 1018.50 1018.66 1018.86 1019.12 1019.41 1019.72 1019.98 1020.15 1020.18 1020.06 1019.80 1019.43 1019.01 1018.59 1018.23 1017.96 1017.81 1017.76 1017.80 1017.88 1017.99 1018.10 1018.20 1018.29 1018.38 1018.49 1018.63 1018.80 1019.00 1019.20 1019.40 1019.57 1019.72 1019.83
1015.56 1015.78 1016.13 1016.57 1017.02 1017.43 1017.76 1018.00 1018.16 1018.29 1018.42 1018.60 1018.84 1019.13 1019.45 1019.73 1019.92 1019.97 1019.87 1019.61 1019.23 1018.78 1018.30 1017.87 1017.52 1017.28 1017.14 1017.09 1017.11 1017.17 1017.25 1017.34 1017.44 1017.56 1017.71 1017.88 1018.08 1018.29 1018.50 1018.69 1018.85 1018.98 1019.08
1015.48 1015.69 1016.02 1016.44 1016.86 1017.24 1017.55 1017.76 1017.89 1017.99 1018.10 1018.26 1018.48 1018.77 1019.08 1019.37 1019.59 1019.67 1019.59 1019.36 1019.00 1018.54 1018.05 1017.57 1017.15 1016.83 1016.59 1016.45 1016.38 1016.36 1016.39 1016.44 1016.53 1016.66 1016.82 1017.01 1017.23 1017.45 1017.66 1017.85 1018.00 1018.11 1018.19
1015.30 1015.51 1015.83 1016.21 1016.60 1016.95 1017.23 1017.42 1017.53 1017.61 1017.70 1017.84 1018.05 1018.32 1018.63 1018.92 1019.15 1019.27 1019.23 1019.05 1018.72 1018.29 1017.81 1017.31 1016.86 1016.46 1016.14 1015.90 1015.72 1015.61 1015.55 1015.54 1015.59 1015.69 1015.85 1016.04 1016.27 1016.50 1016.71 1016.90 1017.04 1017.14 1017.20
1015.00 1015.20 1015.50 1015.86 1016.22 1016.55 1016.80 1016.97 1017.08 1017.15 1017.23 1017.35 1017.54 1017.80 1018.10 1018.39 1018.63 1018.77 1018.79 1018.65 1018.39 1018.01 1017.57 1017.09 1016.62 1016.18 1015.79 1015.45 1015.17 1014.95 1014.79 1014.70 1014.68 1014.73 1014.86 1015.04 1015.26 1015.48 1015.70 1015.88 1016.01 1016.10 1016.16
1014.54 1014.76 1015.05 1015.39 1015.73 1016.03 1016.27 1016.44 1016.55 1016.62 1016.70 1016.81 1016.99 1017.23 1017.50 1017.79 1018.03 1018.20 1018.25 1018.18 1017.99 1017.69 1017.31 1016.89 1016.43 1015.98 1015.54 1015.13 1014.76 1014.43 1014.16 1013.97 1013.87 1013.86 1013.93 1014.08 1014.28 1014.49 1014.69 1014.86 1014.99 1015.07 1015.13
1013.97 1014.20 1014.50 1014.82 1015.16 1015.45 1015.69 1015.87 1015.98 1016.06 1016.14 1016.25 1016.41 1016.62 1016.86 1017.12 1017.36 1017.53 1017.62 1017.62 1017.51 1017.30 1017.01 1016.66 1016.26 1015.83 1015.38 1014.93 1014.49 1014.07 1013.72 1013.43 1013.24 1013.15 1013.17 1013.26 1013.42 1013.60 1013.78 1013.93 1014.04 1014.11 1014.16
1013.33 1013.59 1013.89 1014.23 1014.56 1014.86 1015.10 1015.29 1015.42 1015.51 1015.59 1015.69 1015.82 1015.99 1016.19 1016.41 1016.62 1016.80 1016.92 1016.96 1016.93 1016.82 1016.64 1016.39 1016.08 1015.71 1015.29 1014.84 1014.37 1013.91 1013.49 1013.13 1012.86 1012.69 1012.63 1012.66 1012.76 1012.89 1013.02 1013.13 1013.21 1013.25 1013.28
1012.69 1012.98 1013.30 1013.65 1013.99 1014.30 1014.56 1014.75 1014.89 1014.99 1015.06 1015.14 1015.24 1015.36 1015.51 1015.68 1015.85 1016.01 1016.14 1016.23 1016.28 1016.27 1016.20 1016.07 1015.87 1015.59 1015.25 1014.84 1014.39 1013.92 1013.46 1013.06 1012.73 1012.49 1012.36 1012.31 1012.33 1012.38 1012.44 1012.49 1012.50 1012.50 1012.49
1012.08 1012.40 1012.75 1013.12 1013.47 1013.79 1014.06 1014.27 1014.41 1014.50 1014.57 1014.62 1014.67 1014.74 1014.83 1014.94 1015.06 1015.19 1015.32 1015.45 1015.56 1015.64 1015.69 1015.68 1015.60 1015.45 1015.20 1014.88 1014.49 1014.05 1013.60 1013.18 1012.81 1012.52 1012.31 1012.18 1012.11 1012.07 1012.03 1011.98 1011.92 1011.84 1011.77
1011.50 1011.87 1012.25 1012.64 1013.01 1013.34 1013.61 1013.82 1013.96 1014.05 1014.09 1014.11 1014.12 1014.14 1014.17 1014.22 1014.29 1014.39 1014.51 1014.65 1014.81 1014.97 1015.11 1015.22 1015.27 1015.24 1015.12 1014.90 1014.60 1014.22 1013.82 1013.41 1013.02 1012.69 1012.42 1012.21 1012.04 1011.89 1011.74 1011.59 1011.42 1011.25 1011.10
1010.94 1011.35 1011.77 1012.18 1012.56 1012.90 1013.17 1013.37 1013.51 1013.58 1013.61 1013.60 1013.58 1013.56 1013.54 1013.54 1013.57 1013.64 1013.75 1013.89 1014.08 1014.29 1014.51 1014.72 1014.88 1014.96 1014.96 1014.85 1014.65 1014.36 1014.01 1013.64 1013.26 1012.91 1012.59 1012.30 1012.04 1011.78 1011.53 1011.26 1010.98 1010.71 1010.48
1010.36 1010.81 1011.26 1011.69 1012.08 1012.42 1012.69 1012.89 1013.02 1013.09 1013.11 1013.09 1013.06 1013.01 1012.97 1012.95 1012.95 1012.99 1013.08 1013.22 1013.42 1013.66 1013.92 1014.19 1014.42 1014.60 1014.69 1014.68 1014.57 1014.37 1014.09 1013.77 1013.42 1013.06 1012.71 1012.38 1012.04 1011.69 1011.34 1010.97 1010.60 1010.24 1009.93
1009.73 1010.21 1010.69 1011.13 1011.53 1011.86 1012.13 1012.33 1012.46 1012.54 1012.57 1012.57 1012.55 1012.52 1012.48 1012.46 1012.45 1012.49 1012.56 1012.69 1012.88 1013.11 1013.38 1013.66 1013.93 1014.15 1014.30 1014.36 1014.33 1014.20 1014.00 1013.73 1013.42 1013.09 1012.73 1012.37 1011.99 1011.59 1011.16 1010.72 1010.27 1009.85 1009.48
1009.03 1009.54 1010.03 1010.48 1010.88 1011.21 1011.48 1011.68 1011.83 1011.94 1012.01 1012.05 1012.08 1012.10 1012.10 1012.11 1012.13 1012.16 1012.23 1012.34 1012.49 1012.69 1012.93 1013.18 1013.44 1013.66 1013.82 1013.92 1013.93 1013.86 1013.71 1013.50 1013.24 1012.94 1012.61 1012.25 1011.86 1011.44 1010.99 1010.51 1010.03 1009.57 1009.16
1008.27 1008.80 1009.29 1009.74 1010.14 1010.47 1010.74 1010.97 1011.15 1011.30 1011.44 1011.56 1011.67 1011.76 1011.84 1011.91 1011.97 1012.02 1012.08 1012.17 1012.28 1012.42 1012.59 1012.79 1012.98 1013.16 1013.30 1013.39 1013.41 1013.37 1013.27 1013.11 1012.90 1012.65 1012.36 1012.04 1011.68 1011.28 1010.84 1010.37 1009.88 1009.42 1008.99
1007.51 1008.03 1008.52 1008.96 1009.35 1009.68 1009.97 1010.22 1010.45 1010.67 1010.89 1011.10 1011.32 1011.51 1011.69 1011.84 1011.95 1012.03 1012.10 1012.16 1012.22 1012.29 1012.38 1012.49 1012.60 1012.71 1012.79 1012.85 1012.86 1012.82 1012.74 1012.62 1012.46 1012.26 1012.03 1011.77 1011.46 1011.10 1010.70 1010.27 1009.81 1009.36 1008.95
Thickness
5760 5759 5759 5758 5757 5757 5757 5756 5756 5756 5756 5755 5755 5754 5753 5751 5749 5748 5746 5745 5743 5742 5741 5740 5739 5738 5737 5736 5735 5734 5733 5732 5730 5729 5727 5726 5725 5724 5723 5721 5720 5718 5717
5761 5760 5759 5758 5758 5757 5757 5756 5756 5756 5755 5754 5754 5753 5752 5750 5748 5746 5745 5743 5742 5741 5740 5739 5738 5737 5736 5735 5734 5733 5732 5731 5730 5728 5727 5726 5725 5724 5723 5721 5719 5718 5716
5763 5761 5760 5759 5758 5758 5758 5757 5756 5756 5755 5754 5752 5752 5751 5750 5747 5745 5744 5742 5741 5740 5739 5739 5738 5737 5736 5735 5733 5733 5732 5730 5729 5728 5726 5725 5724 5723 5722 5720 5719 5717 5716
5763 5762 5760 5759 5759 5758 5758 5757 5756 5754 5753 5751 5750 5750 5749 5748 5746 5744 5742 5741 5740 5739 5738 5738 5737 5736 5735 5734 5733 5732 5731 5730 5729 5727 5726 5724 5723 5722 5721 5720 5718 5717 5716
5764 5762 5761 5760 5759 5758 5758 5757 5755 5754 5751 5750 5749 5748 5748 5747 5745 5743 5741 5741 5740 5739 5738 5737 5737 5735 5734 5734 5733 5732 5730 5729 5728 5726 5725 5723 5722 5721 5720 5719 5717 5716 5715
5765 5763 5761 5760 5760 5758 5757 5756 5755 5754 5752 5751 5750 5747 5745 5745 5744 5742 5741 5740 5739 5738 5737 5736 5735 5734 5733 5732 5731 5730 5729 5728 5726 5725 5724 5722 5721 5720 5719 5718 5716 5715 5714
5766 5764 5762 5761 5760 5758 5757 5757 5755 5752 5750 5750 5745 5741 5741 5742 5741 5741 5740 5739 5738 5737 5736 5734 5733 5732 5731 5730 5729 5728 5727 5727 5725 5724 5722 5721 5720 5719 5718 5717 5715 5714 5713
5766 5765 5763 5761 5760 5758 5757 5756 5754 5751 5749 5749 5743 5736 5730 5731 5736 5739 5738 5737 5736 5735 5733 5732 5730 5730 5729 5728 5727 5726 5725 5724 5723 5722 5721 5720 5719 5718 5716 5715 5714 5713 5711
5767 5766 5764 5762 5761 5759 5756 5755 5754 5751 5747 5747 5746 5739 5729 5724 5728 5732 5734 5735 5734 5732 5730 5729 5728 5727 5726 5725 5724 5723 5722 5721 5720 5720 5719 5718 5717 5716 5714 5713 5712 5711 5710
5768 5766 5765 5763 5761 5759 5756 5755 5755 5752 5749 5744 5744 5744 5740 5736 5728 5724 5727 5729 5730 5729 5727 5727 5726 5724 5723 5721 5721 5720 5719 5718 5717 5716 5716 5715 5713 5712 5711 5710 5710 5709 5708
5767 5766 5765 5764 5762 5759 5757 5756 5754 5752 5750 5746 5743 5742 5739 5737 5734 5726 5720 5722 5724 5724 5724 5723 5722 5721 5720 5718 5717 5716 5715 5714 5713 5712 5712 5711 5710 5709 5708 5707 5706 5706 5705
5766 5766 5765 5763 5762 5760 5757 5756 5754 5752 5750 5748 5745 5743 5739 5734 5731 5727 5721 5718 5717 5719 5720 5720 5719 5717 5716 5714 5713 5712 5711 5710 5709 5708 5707 5706 5705 5705 5704 5703 5703 5702 5701
5763 5764 5763 5762 5760 5759 5757 5755 5753 5751 5749 5746 5744 5742 5740 5738 5736 5730 5723 5718 5716 5715 5715 5715 5715 5714 5712 5710 5709 5707 5706 5705 5704 5703 5702 5701 5700 5699 5698 5698 5697 5696 5696
5763 5763 5762 5760 5759 5758 5756 5754 5751 5749 5747 5745 5743 5741 5739 5738 5736 5731 5726 5719 5712 5710 5710 5710 5710 5709 5708 5706 5704 5703 5701 5700 5698 5697 5696 5695 5694 5693 5692 5692 5690 5689 5689
5763 5762 5761 5759 5757 5756 5754 5751 5748 5746 5744 5742 5740 5739 5736 5735 5734 5732 5728 5724 5716 5707 5704 5706 5705 5705 5703 5701 5699 5698 5695 5694 5692 5691 5689 5688 5687 5686 5685 5684 5683 5682 5682
5763 5761 5759 5757 5755 5753 5751 5748 5745 5742 5740 5738 5737 5735 5733 5732 5730 5729 5726 5724 5720 5713 5705 5704 5702 5702 5700 5697 5694 5692 5689 5687 5685 5684 5682 5681 5680 5679 5677 5676 5675 5674 5673
5761 5759 5757 5754 5752 5749 5747 5744 5741 5738 5736 5733 5732 5731 5728 5728 5726 5724 5723 5720 5716 5712 5704 5700 5699 5697 5694 5691 5688 5686 5683 5680 5678 5677 5676 5674 5672 5670 5669 5668 5666 5665 5665
5759 5756 5754 5751 5748 5745 5743 5739 5736 5735 5731 5728 5727 5725 5723 5722 5720 5718 5717 5714 5711 5709 5703 5696 5693 5690 5688 5686 5683 5679 5676 5674 5672 5670 5668 5666 5664 5662 5660 5659 5658 5657 5656
5755 5753 5750 5746 5743 5741 5738 5735 5733 5730 5727 5725 5723 5720 5718 5716 5714 5712 5711 5708 5706 5704 5700 5694 5689 5686 5683 5680 5675 5672 5670 5667 5665 5662 5660 5657 5655 5653 5651 5650 5649 5648 5647
5751 5748 5746 5743 5739 5737 5734 5731 5729 5725 5722 5720 5719 5716 5713 5711 5709 5707 5705 5702 5700 5696 5693 5688 5683 5679 5676 5673 5669 5664 5660 5658 5657 5655 5652 5650 5647 5645 5643 5642 5640 5639 5638
5748 5744 5741 5738 5735 5732 5729 5727 5724 5720 5717 5715 5713 5711 5709 5707 5706 5704 5701 5697 5695 5690 5686 5681 5677 5672 5669 5665 5661 5659 5654 5651 5648 5647 5643 5642 5639 5637 5635 5633 5631 5630 5628
5743 5740 5736 5733 5730 5727 5725 5721 5718 5714 5712 5709 5706 5705 5703 5701 5699 5698 5695 5693 5690 5685 5680 5676 5671 5667 5665 5662 5658 5655 5649 5644 5639 5638 5635 5633 5632 5629 5627 5625 5623 5621 5619
5738 5734 5731 5728 5724 5722 5719 5716 5712 5709 5705 5702 5700 5699 5698 5696 5693 5690 5688 5686 5683 5680 5678 5673 5667 5664 5661 5659 5654 5649 5644 5640 5636 5634 5630 5625 5624 5621 5620 5618 5615 5613 5610
5732 5728 5724 5722 5719 5716 5714 5711 5707 5704 5700 5696 5695 5693 5690 5688 5687 5684 5680 5677 5674 5672 5670 5667 5664 5661 5658 5655 5651 5647 5641 5635 5632 5628 5625 5618 5616 5614 5613 5610 5608 5605 5602
5726 5722 5718 5715 5712 5710 5708 5706 5703 5698 5693 5690 5689 5687 5684 5681 5680 5678 5673 5669 5666 5664 5662 5660 5657 5655 5652 5649 5646 5640 5633 5627 5621 5619 5617 5612 5608 5605 5604 5602 5600 5597 5594
5720 5716 5713 5709 5707 5703 5701 5699 5697 5693 5688 5684 5681 5679 5677 5675 5672 5670 5666 5662 5658 5655 5653 5651 5648 5646 5643 5640 5637 5633 5628 5621 5615 5611 5610 5606 5601 5598 5593 5592 5591 5588 5585